User: anonymous   Login
Location: Delta State University
(33.7460°N, 90.7320°W)
Time: 16:18:33
(UTC-05:00)
Language:

Iridium 13 - Orbit

View from above orbital plane
View from above orbital plane
View from above satellite
View from above satellite

Ground track
Ground track

The orbit data is extracted from the following two-line orbital elements,

1 24840U 97030E   18119.15646152  .20151174 -20482-5  21976-3 0  9998
2 24840  86.3773 214.1259 0044385 225.9580 134.0742 16.45762799 92809
Epoch (UTC): 29 April 2018 03:45:18
Eccentricity: 0.0044385
inclination: 86.3773°
perigee height: 121 km
apogee height: 179 km
right ascension of ascending node: 214.1259°
argument of perigee: 225.9580°
revolutions per day: 16.45762799
mean anomaly at epoch: 134.0742°
orbit number at epoch: 9280

The dashed part of the orbit path shows where the satellite is in the earth's shadow,  

DLR